Location: Marstown
(39.5056°N, 77.0820°W)
Time: 01:14:52
(UTC-04:00)

ACS3 Solar Sail - Visible Passes

Search period start: 16 July 2024 00:00
Search period end: 26 July 2024 00:00
Orbit: 993 x 1023 km, 97.4° (Epoch: 15 July)

Date Brightness Start Highest point End Pass type
(mag) Time Alt. Az. Time Alt. Az. Time Alt. Az.
16 Jul 4.9 22:24:20 21° S 22:28:39 83° WSW 22:34:55 10° NNW visible
17 Jul 7.2 00:12:23 10° W 00:13:39 11° W 00:14:55 10° WNW visible
17 Jul 5.9 21:14:06 10° SE 21:19:19 29° ENE 21:24:33 10° N visible
17 Jul 5.7 22:59:09 20° SSW 23:03:10 43° W 23:09:05 10° NNW visible
18 Jul 5.1 21:48:38 16° SE 21:53:27 55° ENE 21:59:31 10° N visible
18 Jul 6.7 23:33:58 13° SW 23:37:53 22° W 23:42:36 10° NW visible
19 Jul 4.9 22:23:28 21° S 22:27:48 80° W 22:34:04 10° NNW visible
20 Jul 7.3 00:12:14 10° W 00:12:49 10° W 00:13:22 10° W visible
20 Jul 5.8 21:13:10 10° SE 21:18:25 30° ENE 21:23:43 10° N visible
20 Jul 5.8 22:58:17 19° SSW 23:02:19 42° W 23:08:11 10° NNW visible
21 Jul 5.0 21:47:46 17° SE 21:52:34 56° ENE 21:58:40 10° N visible
21 Jul 6.7 23:33:07 12° SW 23:37:02 21° W 23:41:40 10° NW visible
22 Jul 4.9 22:22:36 21° S 22:26:55 78° WSW 22:33:12 10° NNW visible
23 Jul 5.8 21:12:13 10° SE 21:17:32 31° ENE 21:22:53 10° N visible
23 Jul 5.8 22:57:26 19° SSW 23:01:27 40° W 23:07:18 10° NNW visible
24 Jul 5.0 21:46:55 17° SSE 21:51:42 58° ENE 21:57:49 10° N visible
24 Jul 6.8 23:32:15 12° SW 23:36:11 21° W 23:40:44 10° NW visible
25 Jul 4.9 22:21:45 21° S 22:26:03 76° W 22:32:20 10° NNW visible
